When you browse on this site, cookies collect data to enhance your experience and personalize the content and advertising you see.
Visit our Privacy Policy to learn more. By continuing to use the site, you agree to this use of cookies and data.
  • In Romania
  • List of Countries
  • For 7 days
  • Water Temperature
  • Weather Map
  • Weather Widgets
  • user-avatar
    Login

    Hourly Weather Folkern

    Today, 23 February, Sunday

    Time Temperature Precipitation Wind Pressure Humidity
    00:00 0°C° 0 mm 15 mps 750 mmHg 69%
    01:00 0°C° 0.1 mm 15 mps 750 mmHg 69%
    02:00 0°C° 0.1 mm 14 mps 749 mmHg 70%
    03:00 0°C° 0.1 mm 14 mps 749 mmHg 70%
    04:00 0°C° 0.2 mm 14 mps 749 mmHg 70%
    05:00 0°C° 0.2 mm 14 mps 749 mmHg 71%
    06:00 0°C° 0 mm 14 mps 749 mmHg 72%
    07:00 0°C° 0.4 mm 15 mps 749 mmHg 71%
    08:00 +1°C° 0.4 mm 15 mps 750 mmHg 71%
    09:00 +1°C° 0.4 mm 16 mps 751 mmHg 70%
    10:00 +2°C° 0.2 mm 15 mps 752 mmHg 72%
    11:00 +3°C° 0.2 mm 13 mps 753 mmHg 74%
    12:00 +3°C° 0 mm 11 mps 754 mmHg 75%
    13:00 +3°C° 0.1 mm 10 mps 755 mmHg 75%
    14:00 +4°C° 0.1 mm 8 mps 756 mmHg 74%
    15:00 +5°C° 0.1 mm 6 mps 757 mmHg 74%
    16:00 +4°C° 0 mm 6 mps 758 mmHg 75%
    17:00 +3°C° 0 mm 5 mps 759 mmHg 76%
    18:00 +3°C° 0 mm 5 mps 760 mmHg 77%
    19:00 +4°C° 0 mm 4 mps 760 mmHg 76%
    20:00 +3°C° 0 mm 3 mps 760 mmHg 75%
    21:00 +4°C° 0 mm 2 mps 761 mmHg 74%
    22:00 +4°C° 0 mm 2 mps 760 mmHg 75%
    23:00 +4°C° 0 mm 2 mps 760 mmHg 76%

    Tomorrow, 24 February, Monday

    Time Temperature Precipitation Wind Pressure Humidity
    00:00 +5°C° 0 mm 1 mps 760 mmHg 78%
    01:00 +3°C° 0 mm 3 mps 759 mmHg 77%
    02:00 +1°C° 0 mm 5 mps 758 mmHg 77%
    03:00 +1°C° 0 mm 6 mps 756 mmHg 77%
    04:00 0°C° 0 mm 7 mps 755 mmHg 78%
    05:00 0°C° 0 mm 7 mps 754 mmHg 79%
    06:00 0°C° 0 mm 8 mps 753 mmHg 80%
    07:00 0°C° 0.2 mm 8 mps 752 mmHg 78%
    08:00 0°C° 0.2 mm 9 mps 751 mmHg 76%
    09:00 0°C° 0.2 mm 10 mps 750 mmHg 74%
    10:00 0°C° 0 mm 10 mps 749 mmHg 75%
    11:00 +1°C° 0 mm 9 mps 749 mmHg 75%
    12:00 +1°C° 0 mm 9 mps 749 mmHg 76%
    13:00 +1°C° 0.1 mm 8 mps 748 mmHg 79%
    14:00 0°C° 0.1 mm 8 mps 748 mmHg 82%
    15:00 0°C° 0.1 mm 7 mps 748 mmHg 85%
    16:00 +1°C° 0.2 mm 6 mps 748 mmHg 87%
    17:00 +1°C° 0.2 mm 4 mps 748 mmHg 90%
    18:00 +1°C° 0.2 mm 3 mps 747 mmHg 92%
    19:00 +1°C° 0.1 mm 3 mps 747 mmHg 93%
    20:00 +1°C° 0.1 mm 3 mps 747 mmHg 94%
    21:00 +1°C° 0.1 mm 3 mps 746 mmHg 96%
    22:00 +1°C° 0.1 mm 3 mps 746 mmHg 95%
    23:00 +1°C° 0.1 mm 3 mps 745 mmHg 95%

    Day after tomorrow, 25 February, Tuesday

    Time Temperature Precipitation Wind Pressure Humidity
    00:00 +1°C° 0.1 mm 3 mps 745 mmHg 95%
    01:00 0°C° 0.5 mm 4 mps 745 mmHg 96%
    02:00 0°C° 0.5 mm 5 mps 744 mmHg 96%
    03:00 0°C° 0.5 mm 5 mps 743 mmHg 96%
    04:00 -1°C° 0.3 mm 6 mps 743 mmHg 95%
    05:00 -1°C° 0.3 mm 7 mps 743 mmHg 93%
    06:00 -1°C° 0.3 mm 7 mps 743 mmHg 92%
    07:00 0°C° 0.3 mm 7 mps 742 mmHg 87%
    08:00 0°C° 0.3 mm 7 mps 742 mmHg 82%
    09:00 +2°C° 0.3 mm 7 mps 742 mmHg 77%
    10:00 +2°C° 0.2 mm 7 mps 741 mmHg 75%
    11:00 +3°C° 0.2 mm 6 mps 741 mmHg 72%
    12:00 +3°C° 0.2 mm 5 mps 741 mmHg 70%
    13:00 +3°C° 0.5 mm 6 mps 740 mmHg 70%
    14:00 +3°C° 0.5 mm 6 mps 740 mmHg 70%
    15:00 +3°C° 0.5 mm 7 mps 740 mmHg 70%
    16:00 +2°C° 0.1 mm 7 mps 740 mmHg 72%
    17:00 +2°C° 0.1 mm 6 mps 740 mmHg 74%
    18:00 +1°C° 0.1 mm 6 mps 740 mmHg 76%
    19:00 0°C° 0 mm 7 mps 740 mmHg 76%
    20:00 0°C° 0 mm 7 mps 741 mmHg 75%
    21:00 0°C° 0 mm 8 mps 741 mmHg 75%
    22:00 +1°C° 0 mm 8 mps 742 mmHg 74%
    23:00 +1°C° 0 mm 9 mps 743 mmHg 72%

    26 February, Wednesday

    Time Temperature Precipitation Wind Pressure Humidity
    00:00 +1°C° 0 mm 10 mps 744 mmHg 71%
    01:00 +1°C° 0.1 mm 10 mps 744 mmHg 70%
    02:00 +1°C° 0.1 mm 10 mps 745 mmHg 69%
    03:00 +1°C° 0.1 mm 11 mps 745 mmHg 68%
    04:00 +1°C° 0.3 mm 11 mps 746 mmHg 68%
    05:00 0°C° 0.3 mm 12 mps 746 mmHg 69%
    06:00 0°C° 0.3 mm 12 mps 747 mmHg 69%
    07:00 0°C° 0.2 mm 12 mps 747 mmHg 68%
    08:00 0°C° 0.2 mm 12 mps 747 mmHg 66%
    09:00 0°C° 0.2 mm 12 mps 748 mmHg 65%
    10:00 0°C° 0.2 mm 12 mps 748 mmHg 64%
    11:00 0°C° 0.2 mm 12 mps 748 mmHg 63%
    12:00 +1°C° 0.2 mm 11 mps 748 mmHg 61%
    13:00 +1°C° 0.3 mm 11 mps 748 mmHg 63%
    14:00 +1°C° 0.3 mm 11 mps 747 mmHg 65%
    15:00 0°C° 0.3 mm 12 mps 747 mmHg 66%
    16:00 0°C° 0.3 mm 12 mps 747 mmHg 67%
    17:00 0°C° 0.3 mm 12 mps 747 mmHg 67%
    18:00 -1°C° 0.3 mm 12 mps 747 mmHg 67%
    19:00 -1°C° 0.2 mm 12 mps 747 mmHg 68%
    20:00 -1°C° 0.2 mm 11 mps 747 mmHg 68%
    21:00 -1°C° 0.2 mm 11 mps 747 mmHg 69%
    22:00 0°C° 0.2 mm 10 mps 746 mmHg 70%
    23:00 0°C° 0.2 mm 10 mps 746 mmHg 71%

    27 February, Thursday

    Time Temperature Precipitation Wind Pressure Humidity
    00:00 0°C° 0.2 mm 9 mps 746 mmHg 72%
    01:00 0°C° 0.1 mm 9 mps 746 mmHg 72%
    02:00 0°C° 0.1 mm 9 mps 745 mmHg 73%
    03:00 0°C° 0.1 mm 8 mps 745 mmHg 74%
    04:00 0°C° 0.2 mm 8 mps 745 mmHg 74%
    05:00 0°C° 0.2 mm 8 mps 745 mmHg 74%
    06:00 0°C° 0.2 mm 8 mps 745 mmHg 75%
    07:00 0°C° 0.2 mm 8 mps 745 mmHg 74%
    08:00 0°C° 0.2 mm 7 mps 745 mmHg 73%
    09:00 +2°C° 0.2 mm 6 mps 745 mmHg 72%
    10:00 +2°C° 0.1 mm 5 mps 745 mmHg 69%
    11:00 +3°C° 0.1 mm 5 mps 745 mmHg 66%
    12:00 +4°C° 0.1 mm 4 mps 745 mmHg 63%
    13:00 +4°C° 0.3 mm 4 mps 745 mmHg 62%
    14:00 +4°C° 0.3 mm 3 mps 745 mmHg 61%
    15:00 +4°C° 0.3 mm 3 mps 745 mmHg 61%
    16:00 +3°C° 0.2 mm 3 mps 745 mmHg 65%
    17:00 +1°C° 0.2 mm 4 mps 745 mmHg 69%
    18:00 +1°C° 0.2 mm 4 mps 745 mmHg 74%
    19:00 0°C° 0.1 mm 4 mps 745 mmHg 76%
    20:00 0°C° 0.1 mm 4 mps 745 mmHg 78%
    21:00 -1°C° 0.1 mm 4 mps 745 mmHg 80%
    22:00 -1°C° 0.1 mm 4 mps 745 mmHg 80%
    23:00 -1°C° 0.1 mm 5 mps 745 mmHg 81%

    28 February, Friday

    Time Temperature Precipitation Wind Pressure Humidity
    00:00 -1°C° 0.1 mm 5 mps 745 mmHg 82%
    01:00 -2°C° 0.1 mm 6 mps 744 mmHg 82%
    02:00 -2°C° 0.1 mm 6 mps 744 mmHg 83%
    03:00 -2°C° 0.1 mm 7 mps 744 mmHg 84%
    04:00 -2°C° 0.5 mm 8 mps 743 mmHg 82%
    05:00 -1°C° 0.5 mm 8 mps 743 mmHg 80%
    06:00 -1°C° 0.5 mm 9 mps 743 mmHg 78%
    07:00 -1°C° 0.2 mm 9 mps 743 mmHg 81%
    08:00 -3°C° 0.2 mm 9 mps 743 mmHg 84%
    09:00 -3°C° 0.2 mm 9 mps 743 mmHg 86%
    10:00 -2°C° 0.4 mm 8 mps 743 mmHg 89%
    11:00 -2°C° 0.4 mm 6 mps 743 mmHg 92%
    12:00 0°C° 0.4 mm 5 mps 742 mmHg 95%
    13:00 +1°C° 0.1 mm 6 mps 742 mmHg 86%
    14:00 +2°C° 0.1 mm 6 mps 742 mmHg 77%
    15:00 +3°C° 0.1 mm 7 mps 742 mmHg 68%
    16:00 +2°C° 0.1 mm 6 mps 742 mmHg 69%
    17:00 +1°C° 0.1 mm 5 mps 742 mmHg 70%
    18:00 0°C° 0.1 mm 4 mps 742 mmHg 72%
    19:00 0°C° 0.1 mm 4 mps 742 mmHg 74%
    20:00 -1°C° 0.1 mm 4 mps 742 mmHg 76%
    21:00 -1°C° 0.1 mm 4 mps 742 mmHg 78%
    22:00 -1°C° 0.2 mm 4 mps 742 mmHg 78%
    23:00 -1°C° 0.2 mm 5 mps 742 mmHg 78%
    Show more